This demonstration page uses our WeatherBlox Daily Observations layout. Learn more.

Left ArrowRight Arrow

Hourly Observations for July 24, 2015

Temp ( °F °C ) Dew Point ( °F °C ) Humidity (%) Winds ( mph kmh ) Pressure ( in mb ) Visibility ( mi km ) Precip ( " mm )
12:53 am 00:53 Clear 87 30.6 58 14.4 37 37 SSE 12 19 29.83 1010 10 16 0.00 0.00
1:53 am 01:53 Clear 85 29.4 58 14.4 40 40 SSE 14 22 29.84 1011 10 16 0.00 0.00
2:53 am 02:53 Clear 83 28.3 58 14.4 43 43 SE 13 20 29.83 1010 10 16 0.00 0.00
3:53 am 03:53 Clear 82 27.8 58 14.4 44 44 SE 10 17 29.83 1010 10 16 0.00 0.00
4:53 am 04:53 Clear 79 26.1 58 14.4 49 49 SE 9 15 29.83 1010 10 16 0.00 0.00
5:53 am 05:53 Clear 78 25.6 59 15 52 52 SE 9 15 29.84 1011 10 16 0.00 0.00
6:53 am 06:53 Clear 76 24.4 60 15.6 58 58 SE 9 15 29.87 1011 10 16 0.00 0.00
7:53 am 07:53 Sunny 77 25 61 16.1 58 58 ESE 13 20 29.88 1012 10 16 0.00 0.00
8:53 am 08:53 Sunny 81 27.2 62 16.7 53 53 SE 14 22 29.88 1012 10 16 0.00 0.00
9:53 am 09:53 Sunny 85 29.4 63 17.2 48 48 SSE 10 17 29.90 1012 10 16 0.00 0.00
10:53 am 10:53 Sunny 89 31.7 63 17.2 42 42 ESE 10 17 29.89 1012 10 16 0.00 0.00
11:53 am 11:53 Sunny 92 33.3 62 16.7 37 37 ESE 8 13 29.88 1012 10 16 0.00 0.00
12:53 pm 12:53 Sunny 96 35.6 61 16.1 31 31 ENE 7 11 29.87 1012 10 16 0.00 0.00
1:53 pm 13:53 Sunny 101 38.3 55 12.8 22 22 ESE 12 19 29.85 1011 10 16 0.00 0.00
2:53 pm 14:53 Sunny 102 38.9 51 10.6 18 18 E 9 15 29.83 1010 10 16 0.00 0.00
3:53 pm 15:53 Sunny 103 39.4 54 12.2 20 20 ESE 14 22 29.80 1009 10 16 0.00 0.00
4:53 pm 16:53 Sunny 103 39.4 52 11.1 18 18 SE 9 15 29.78 1009 10 16 0.00 0.00
5:53 pm 17:53 Sunny 103 39.4 51 10.6 18 18 E 13 20 29.76 1008 10 16 0.00 0.00
6:53 pm 18:53 Sunny 101 38.3 53 11.7 20 20 SE 17 28 29.76 1008 10 16 0.00 0.00
7:53 pm 19:53 Sunny 99 37.2 54 12.2 22 22 ESE 14 22 29.78 1008 10 16 0.00 0.00
8:53 pm 20:53 Sunny 96 35.6 56 13.3 26 26 SE 13 20 29.78 1008 10 16 0.00 0.00
9:53 pm 21:53 Clear 93 33.9 60 15.6 33 33 SE 15 24 29.79 1009 10 16 0.00 0.00
10:53 pm 22:53 Clear 90 32.2 62 16.7 39 39 SSE 14 22 29.81 1010 10 16 0.00 0.00
11:53 pm 23:53 Clear 87 30.6 64 17.8 46 46 SSE 18 30 29.83 1010 10 16 0.00 0.00

Powered by AerisWeather